Boothville, LA

7:23 PM CDT on June 28, 2017 (GMT -0500)
Boothville

Weather History for KBVE - November, 2013

Change the Weather History Date:

Sunday, November 17, 2013

  Actual Average (KAXO) Record (KAXO)
Temperature  
Mean Temperature 67 °F -  
Max Temperature 71 °F 66 °F 80 °F (2015)
Min Temperature 63 °F 62 °F 46 °F (1997)
Cooling Degree Days 2    
Growing Degree Days 17 (Base 50)    
Moisture  
Dew Point 70 °F    
Average Humidity 100    
Maximum Humidity 100    
Minimum Humidity 100    
Precipitation  
Precipitation 0.04 in - - ()
Sea Level Pressure  
Sea Level Pressure 29.97 in    
Wind  
Wind Speed 4 mph (South)    
Max Wind Speed 9 mph    
Max Gust Speed -    
Visibility 4 miles    
Events Fog , Rain    
Averages and records for this station are not official NWS values.
T = Trace of Precipitation, MM = Missing Value Source: NWS Daily Summary

Daily Weather History Graph

Daily Weather History Graph

Search for Another Location

Airport or City:

Trip Planner

Search our weather history database for the weather conditions in past years. The results will help you decide how hot, cold, wet, or windy it might be!

Date:

Astronomy

Nov. 17, 2013 Rise Set
Actual Time 6:23 AM CST 5:01 PM CST
Civil Twilight 5:58 AM CST 5:26 PM CST
Nautical Twilight 5:29 AM CST 5:55 PM CST
Astronomical Twilight 5:00 AM CST 6:24 PM CST
Moon 5:18 PM CST (11/17) 6:18 AM CST (11/17)
Length of Visible Light 11h 28m
Length of Day
10h 38m
Full, 100% of the Moon is Illuminated
Nov 17
Full
Nov 25
Last Quarter
Dec 2
New
Dec 9
First Quarter
Dec 17
Full

Hourly Weather History & Observations

Time (CST) Temp. Dew Point Humidity Pressure Visibility Wind Dir Wind Speed Gust Speed Precip Events Conditions
12:03 AM - - N/A% 29.96 in 9.0 mi ESE 5.8 mph - N/A   Overcast
12:20 AM - - N/A% 29.96 in 9.0 mi SE 4.6 mph - N/A   Scattered Clouds
12:51 AM - - N/A% 29.97 in 7.0 mi Calm Calm - N/A   Scattered Clouds
1:03 AM - - N/A% 29.96 in 7.0 mi Calm Calm - N/A   Mostly Cloudy
1:51 AM - - N/A% 29.96 in 6.0 mi Calm Calm - N/A   Haze
2:51 AM - - N/A% 29.95 in 6.0 mi Calm Calm - N/A   Haze
3:08 AM - - N/A% 29.94 in 2.5 mi Calm Calm - N/A   Scattered Clouds
3:13 AM - - N/A% 29.94 in 1.5 mi Calm Calm - N/A   Mostly Cloudy
3:20 AM - - N/A% 29.94 in 0.8 mi Calm Calm - N/A   Mostly Cloudy
3:33 AM - - N/A% 29.94 in 0.5 mi Calm Calm - N/A Fog Fog
3:51 AM - - N/A% 29.95 in 0.5 mi Calm Calm - N/A Fog Fog
4:19 AM - - N/A% 29.94 in 0.2 mi Calm Calm - N/A Fog Fog
4:39 AM - - N/A% 29.94 in 0.2 mi Calm Calm - N/A Fog Fog
4:51 AM - - N/A% 29.94 in 0.2 mi Calm Calm - N/A Fog Fog
5:16 AM - - N/A% 29.94 in 0.2 mi Calm Calm - N/A Fog Fog
5:31 AM - - N/A% 29.94 in 0.5 mi Calm Calm - N/A Fog Fog
5:51 AM - - N/A% 29.96 in 0.5 mi Calm Calm - N/A Fog Fog
6:02 AM - - N/A% 29.95 in 0.2 mi Calm Calm - N/A Fog Fog
6:16 AM - - N/A% 29.95 in 0.2 mi SE 3.5 mph - N/A Fog Fog
6:51 AM 63.0 °F - N/A% 29.96 in 0.2 mi SSE 3.5 mph - N/A Fog Fog
7:28 AM 64.4 °F - N/A% 29.97 in 0.5 mi South 3.5 mph - N/A Fog Fog
7:51 AM 64.9 °F - N/A% 29.99 in 0.2 mi SSW 3.5 mph - N/A Fog Fog
7:58 AM 66.2 °F - N/A% 29.99 in 0.5 mi SSW 4.6 mph - N/A Fog Fog
8:08 AM 66.2 °F - N/A% 29.99 in 1.5 mi SSW 4.6 mph - N/A   Overcast
8:19 AM 66.2 °F - N/A% 30.00 in 3.0 mi SSW 4.6 mph - N/A   Overcast
8:23 AM 66.2 °F - N/A% 30.00 in 4.0 mi SSW 4.6 mph - N/A   Haze
8:51 AM 66.9 °F - N/A% 30.01 in 8.0 mi South 4.6 mph - N/A   Overcast
9:00 AM 66.2 °F - N/A% 30.01 in 9.0 mi South 5.8 mph - N/A   Overcast
9:20 AM - - N/A% 30.01 in 9.0 mi South 5.8 mph - N/A   Overcast
9:51 AM 68.0 °F - N/A% 30.02 in 9.0 mi SSW 5.8 mph - N/A   Overcast
10:00 AM 68.0 °F - N/A% 30.02 in 9.0 mi SSW 5.8 mph - N/A   Overcast
10:43 AM 69.8 °F - N/A% 30.01 in 4.0 mi South 6.9 mph - 0.00 in Rain Light Rain
10:51 AM 70.0 °F - N/A% 30.01 in 7.0 mi South 8.1 mph - 0.00 in   Mostly Cloudy
11:25 AM 69.8 °F 69.8 °F 100% 30.00 in 1.8 mi South 6.9 mph - 0.01 in Rain Light Rain
11:37 AM 69.8 °F 69.8 °F 100% 29.99 in 3.0 mi South 9.2 mph - 0.03 in Rain Light Rain
11:51 AM 71.1 °F - N/A% 29.99 in 7.0 mi South 8.1 mph - 0.04 in Rain Light Rain
12:10 PM 69.8 °F - N/A% 29.98 in 7.0 mi South 6.9 mph - N/A   Overcast
12:33 PM 69.8 °F - N/A% 29.97 in 8.0 mi South 8.1 mph - N/A   Mostly Cloudy
12:51 PM 70.0 °F 70.0 °F 100% 29.96 in 8.0 mi South 9.2 mph - N/A   Mostly Cloudy
1:37 PM 71.6 °F 71.6 °F 100% 29.95 in 9.0 mi South 6.9 mph - N/A   Mostly Cloudy
1:51 PM 71.1 °F 71.1 °F 100% 29.95 in 8.0 mi South 6.9 mph - N/A   Overcast
2:51 PM 70.0 °F 70.0 °F 100% 29.94 in 8.0 mi South 8.1 mph - N/A   Overcast
3:41 PM 69.8 °F 69.8 °F 100% 29.94 in 7.0 mi South 8.1 mph - N/A   Mostly Cloudy
3:51 PM 69.1 °F 69.1 °F 100% 29.94 in 8.0 mi South 6.9 mph - N/A   Mostly Cloudy
4:02 PM 69.8 °F 69.8 °F 100% 29.94 in 8.0 mi SSE 5.8 mph - N/A   Mostly Cloudy
4:51 PM 69.1 °F 69.1 °F 100% 29.95 in 6.0 mi SSE 6.9 mph - N/A   Overcast
5:31 PM 69.8 °F 69.8 °F 100% 29.96 in 6.0 mi SSE 5.8 mph - N/A   Overcast
5:51 PM 69.1 °F 69.1 °F 100% 29.97 in 6.0 mi SSE 5.8 mph - N/A   Overcast
6:01 PM 69.8 °F 69.8 °F 100% 29.97 in 5.0 mi SSE 5.8 mph - N/A   Overcast
6:08 PM 69.8 °F 69.8 °F 100% 29.97 in 5.0 mi SSE 5.8 mph - N/A   Overcast
6:16 PM 69.8 °F 69.8 °F 100% 29.97 in 5.0 mi SSE 5.8 mph - N/A   Overcast
6:28 PM 68.0 °F 68.0 °F 100% 29.98 in 5.0 mi SSE 5.8 mph - N/A   Overcast
6:35 PM 68.0 °F 68.0 °F 100% 29.98 in 4.0 mi SSE 3.5 mph - N/A   Overcast
6:48 PM 68.0 °F - N/A% 29.98 in 4.0 mi SSE 5.8 mph - N/A   Haze
6:51 PM 68.0 °F - N/A% 29.98 in 4.0 mi SSE 5.8 mph - N/A   Haze
7:08 PM 68.0 °F - N/A% 29.98 in 4.0 mi SSE 5.8 mph - N/A   Haze
7:16 PM 68.0 °F - N/A% 29.98 in 4.0 mi SSE 6.9 mph - N/A   Haze
7:25 PM 68.0 °F - N/A% 29.98 in 3.0 mi SSE 6.9 mph - N/A   Overcast
7:30 PM 68.0 °F - N/A% 29.99 in 3.0 mi SSE 6.9 mph - N/A   Overcast
7:37 PM 68.0 °F - N/A% 29.99 in 2.0 mi SSE 6.9 mph - N/A   Overcast
7:44 PM 68.0 °F - N/A% 29.99 in 1.5 mi South 6.9 mph - N/A   Overcast
7:51 PM 68.0 °F - N/A% 29.99 in 2.0 mi South 8.1 mph - N/A   Overcast
8:19 PM 66.2 °F - N/A% 29.99 in 1.8 mi South 6.9 mph - N/A   Overcast
8:43 PM 66.2 °F - N/A% 29.99 in 2.0 mi South 5.8 mph - N/A   Overcast
8:51 PM 66.9 °F - N/A% 29.99 in 2.5 mi South 6.9 mph - N/A   Overcast
9:05 PM 68.0 °F - N/A% 29.99 in 3.0 mi South 6.9 mph - N/A   Overcast
9:51 PM 69.1 °F - N/A% 30.00 in 3.0 mi South 6.9 mph - N/A   Overcast
10:02 PM 69.8 °F - N/A% 29.99 in 2.0 mi South 6.9 mph - N/A   Overcast
10:09 PM 68.0 °F - N/A% 29.99 in 1.2 mi South 4.6 mph - N/A   Overcast
10:28 PM 69.8 °F - N/A% 29.99 in 0.8 mi South 4.6 mph - N/A   Mist
10:51 PM 68.0 °F - N/A% 29.99 in 0.5 mi South 5.8 mph - N/A Fog Fog
11:44 PM 68.0 °F - N/A% 29.99 in 0.2 mi South 4.6 mph - N/A Fog Fog
11:51 PM 68.0 °F - N/A% 29.99 in 0.2 mi South 5.8 mph - 0.00 in Rain Light Rain